EI4HQ Weather Reports


Display with metric or nautical units.
time (UTC)temp
F
wind
direction
speed
MPH
gust
MPH
rain 1hr
in
rain 24hr
in
rain mn
in
humidity
%
barometer
mb
20210515105619 54 212 6.0 13.0 0.00 0.43 0.03 92 995.0
20210515104719 55 189 8.0 14.0 0.00 0.43 0.03 94 995.0
20210515103819 54 184 7.0 11.0 0.01 0.43 0.03 96 995.0
20210515102919 52 191 4.0 10.0 0.01 0.43 0.03 95 995.2
20210515102020 51 190 4.0 10.0 0.01 0.43 0.03 95 995.2
20210515101119 52 223 3.0 7.0 0.01 0.43 0.03 95 995.2
20210515100220 52 239 4.0 12.0 0.01 0.43 0.03 95 995.1
20210515095319 53 236 5.0 13.0 0.01 0.43 0.03 95 995.1
20210515094419 54 235 4.0 13.0 0.00 0.43 0.02 95 995.0
20210515093519 55 221 1.0 8.0 0.00 0.43 0.02 97 994.9
20210515092619 54 233 2.0 9.0 0.00 0.43 0.02 97 994.9
20210515091719 54 0 0.0 0.0 0.00 0.43 0.02 98 995.0
20210515090820 54 0 0.0 0.0 0.00 0.43 0.02 98 995.1
20210515085919 53 0 0.0 0.0 0.00 0.43 0.02 98 995.1
20210515085019 53 218 2.0 7.0 0.00 0.43 0.02 98 995.1
20210515084119 52 216 3.0 9.0 0.00 0.43 0.02 98 995.1
20210515083219 52 230 1.0 4.0 0.00 0.43 0.02 98 995.0
20210515082320 52 0 0.0 0.0 0.00 0.43 0.02 98 995.0
20210515081419 51 0 0.0 0.0 0.01 0.43 0.02 98 995.1
20210515080519 51 239 1.0 4.0 0.01 0.43 0.02 98 995.0
20210515075619 51 248 2.0 5.0 0.01 0.43 0.02 98 995.0
20210515074719 51 245 2.0 7.0 0.02 0.43 0.02 98 995.0
20210515073820 50 246 2.0 7.0 0.02 0.43 0.02 98 995.1
20210515072919 49 240 2.0 8.0 0.02 0.43 0.02 97 995.1
20210515072020 49 232 2.0 7.0 0.02 0.43 0.02 98 995.0
20210515071119 49 232 2.0 7.0 0.01 0.42 0.02 98 995.0
20210515070220 49 0 0.0 0.0 0.01 0.42 0.02 98 995.0
20210515065319 48 236 0.0 2.0 0.01 0.42 0.02 98 995.0
20210515064420 48 236 1.0 4.0 0.00 0.41 0.01 98 995.1
20210515063520 47 236 3.0 8.0 0.00 0.41 0.01 98 995.2
20210515062621 47 235 3.0 10.0 0.00 0.41 0.01 98 995.1
20210515061719 47 235 3.0 8.0 0.00 0.41 0.01 97 995.1
20210515060819 47 241 1.0 7.0 0.00 0.42 0.01 98 995.1
20210515055919 46 0 0.0 0.0 0.00 0.42 0.01 97 995.1
20210515055020 46 0 0.0 0.0 0.00 0.42 0.01 97 995.0
20210515054119 46 0 0.0 0.0 0.01 0.42 0.01 97 995.0
20210515053219 46 0 0.0 0.0 0.01 0.42 0.01 97 995.1
20210515052319 46 0 0.0 0.0 0.01 0.42 0.01 97 995.2
20210515051419 46 0 0.0 0.0 0.01 0.42 0.01 97 995.0
20210515050519 46 0 0.0 0.0 0.01 0.42 0.01 97 995.1
20210515045619 45 0 0.0 0.0 0.01 0.42 0.01 97 995.0
20210515044719 45 346 2.0 5.0 0.01 0.42 0.01 97 995.0
20210515043819 45 345 4.0 7.0 0.00 0.41 0.00 97 995.0
20210515042919 45 343 0.0 1.0 0.00 0.41 0.00 97 995.0
20210515042019 44 343 1.0 4.0 0.00 0.41 0.00 97 995.0
20210515041119 44 319 3.0 6.0 0.00 0.41 0.00 97 995.0
20210515040219 44 278 1.0 6.0 0.00 0.41 0.00 97 995.0
20210515035319 44 341 2.0 5.0 0.00 0.41 0.00 97 995.1
20210515034419 44 280 2.0 6.0 0.00 0.41 0.00 97 995.1
20210515033519 44 264 2.0 7.0 0.00 0.41 0.00 97 995.1
20210515032619 44 256 1.0 9.0 0.00 0.41 0.00 97 995.1
20210515031719 44 274 1.0 4.0 0.00 0.41 0.00 96 995.2
20210515030819 44 273 1.0 6.0 0.00 0.41 0.00 96 995.1
20210515025919 45 274 2.0 7.0 0.00 0.41 0.00 97 995.1
20210515025019 45 272 3.0 8.0 0.00 0.41 0.00 97 995.0
20210515024119 45 273 2.0 5.0 0.00 0.41 0.00 96 995.1
20210515023219 46 270 2.0 9.0 0.00 0.41 0.00 96 995.1
20210515022319 46 271 3.0 8.0 0.00 0.41 0.00 96 995.1
20210515021419 47 272 3.0 8.0 0.00 0.41 0.00 96 995.2
20210515020519 47 268 3.0 7.0 0.00 0.41 0.00 97 995.1
20210515015620 47 255 3.0 6.0 0.00 0.41 0.00 96 995.1
20210515014719 47 245 2.0 6.0 0.00 0.41 0.00 96 995.2
20210515013819 48 0 0.0 0.0 0.00 0.41 0.00 96 995.2
20210515012919 49 0 0.0 0.0 0.00 0.41 0.00 97 995.2
20210515012019 49 178 2.0 7.0 0.00 0.41 0.00 97 995.3
20210515011119 49 159 5.0 10.0 0.00 0.41 0.00 97 995.3
20210515010219 49 151 8.0 12.0 0.00 0.41 0.00 97 995.4
20210515005319 49 139 7.0 13.0 0.00 0.41 0.00 97 995.5
20210515004419 49 139 9.0 13.0 0.00 0.41 0.00 97 995.5
20210515003519 49 140 11.0 16.0 0.00 0.41 0.00 97 995.6
20210515002619 49 136 10.0 16.0 0.00 0.41 0.00 97 995.7
20210515001719 49 139 11.0 18.0 0.00 0.41 0.00 97 995.9
20210515000819 48 137 12.0 19.0 0.00 0.41 0.00 97 996.0
20210514235919 48 135 13.0 23.0 0.00 0.41 0.00 97 996.0
20210514235019 48 138 14.0 22.0 0.00 0.41 0.00 97 996.1
20210514234119 48 137 16.0 23.0 0.00 0.41 0.00 96 996.3
20210514233219 48 135 16.0 26.0 0.00 0.41 0.00 96 996.4
20210514232319 48 140 17.0 27.0 0.01 0.41 0.00 96 996.5
20210514231419 48 138 17.0 25.0 0.01 0.41 0.00 96 996.5
20210514230519 48 141 18.0 28.0 0.02 0.41 0.00 96 996.7
20210514225619 48 139 17.0 28.0 0.05 0.41 0.41 96 996.9
20210514224719 47 143 18.0 30.0 0.09 0.41 0.41 96 997.0
20210514223819 47 147 19.0 30.0 0.13 0.41 0.41 96 997.1
20210514222919 47 150 19.0 31.0 0.15 0.41 0.41 96 997.3
20210514222019 47 146 17.0 28.0 0.15 0.40 0.40 96 997.5
20210514221119 47 142 15.0 26.0 0.15 0.39 0.39 96 997.8
20210514220219 47 138 17.0 28.0 0.14 0.38 0.38 96 998.0
20210514215319 47 135 13.0 23.0 0.10 0.34 0.34 96 998.3
20210514214419 47 127 11.0 18.0 0.07 0.30 0.30 96 998.4
20210514213519 47 125 9.0 17.0 0.06 0.28 0.28 95 998.6
20210514212619 47 130 11.0 19.0 0.03 0.25 0.25 95 998.7
20210514211719 47 125 10.0 19.0 0.05 0.25 0.25 95 998.8
20210514210819 47 126 11.0 21.0 0.06 0.24 0.24 95 998.8
20210514205919 47 128 11.0 20.0 0.05 0.24 0.24 95 999.0
20210514205019 47 141 13.0 21.0 0.06 0.24 0.24 95 999.2
20210514204119 47 137 14.0 22.0 0.06 0.23 0.23 95 999.3
20210514203219 47 136 13.0 21.0 0.06 0.22 0.22 94 999.4
20210514202319 47 138 13.0 20.0 0.04 0.20 0.21 95 999.5
20210514201419 47 138 13.0 20.0 0.04 0.20 0.20 94 999.5
20210514200519 47 139 12.0 19.0 0.05 0.19 0.19 94 999.8
20210514195619 47 142 13.0 23.0 0.04 0.18 0.18 94 1000.0
20210514194719 47 147 14.0 21.0 0.04 0.17 0.17 94 1000.2
20210514193819 47 152 14.0 23.0 0.05 0.17 0.17 94 1000.3
20210514192919 47 151 13.0 19.0 0.04 0.17 0.17 93 1000.6
20210514192019 47 154 15.0 21.0 0.05 0.16 0.16 93 1000.7
20210514191119 47 155 16.0 22.0 0.04 0.15 0.15 92 1000.8
20210514190219 47 158 16.0 24.0 0.05 0.14 0.14 92 1001.0
20210514185319 48 160 18.0 25.0 0.05 0.13 0.13 92 1000.9
20210514184419 48 161 19.0 26.0 0.06 0.13 0.13 92 1001.1
20210514183519 48 150 13.0 25.0 0.06 0.13 0.13 92 1001.0
20210514182619 48 145 12.0 20.0 0.06 0.12 0.12 91 1001.4
20210514181719 48 138 12.0 19.0 0.05 0.11 0.11 91 1001.4
20210514180819 47 148 14.0 23.0 0.06 0.11 0.11 90 1001.6
20210514175919 48 150 10.0 20.0 0.05 0.09 0.09 90 1001.7
20210514175019 48 143 9.0 14.0 0.03 0.08 0.08 90 1001.9
20210514174119 48 138 10.0 18.0 0.04 0.07 0.07 90 1002.1
20210514173219 48 146 11.0 17.0 0.04 0.06 0.06 89 1002.2
20210514172319 48 153 12.0 17.0 0.05 0.06 0.06 90 1002.4
20210514171419 48 154 13.0 22.0 0.05 0.06 0.06 90 1002.6
20210514170519 48 164 10.0 13.0 0.05 0.06 0.06 90 1002.8
20210514165619 48 176 10.0 17.0 0.04 0.05 0.05 89 1003.0
20210514164719 49 177 10.0 17.0 0.02 0.03 0.03 89 1003.4
20210514163819 50 170 13.0 19.0 0.02 0.02 0.02 89 1003.3
20210514162919 50 163 14.0 21.0 0.01 0.02 0.02 89 1003.4
20210514162019 51 165 13.0 18.0 0.01 0.02 0.02 90 1003.5
20210514161119 51 167 13.0 18.0 0.00 0.01 0.01 89 1003.8
20210514160219 51 164 12.0 16.0 0.00 0.01 0.01 88 1003.8
20210514155319 52 165 14.0 18.0 0.00 0.01 0.01 87 1003.8
20210514154419 52 168 14.0 19.0 0.00 0.01 0.01 86 1004.0
20210514153519 52 169 13.0 19.0 0.00 0.01 0.01 85 1004.2
20210514152619 52 172 12.0 17.0 0.00 0.01 0.01 85 1004.2
20210514151719 52 172 11.0 18.0 0.00 0.01 0.01 85 1004.5
20210514150819 53 170 11.0 18.0 0.00 0.01 0.01 85 1004.7
20210514145919 52 167 11.0 16.0 0.00 0.01 0.01 85 1004.7
20210514145019 52 171 11.0 19.0 0.00 0.01 0.01 84 1004.8
20210514144119 53 178 12.0 19.0 0.00 0.01 0.01 83 1005.0
20210514143219 53 174 12.0 16.0 0.00 0.01 0.01 82 1005.2
20210514142319 53 167 12.0 17.0 0.00 0.01 0.01 83 1005.3
20210514141419 53 169 12.0 18.0 0.00 0.01 0.01 82 1005.4
20210514140519 53 168 12.0 16.0 0.00 0.01 0.01 82 1005.5
20210514135619 53 170 11.0 16.0 0.00 0.01 0.01 83 1005.5
20210514134719 53 169 11.0 17.0 0.00 0.01 0.01 82 1005.6
20210514133819 53 172 11.0 17.0 0.00 0.01 0.01 82 1005.7
20210514132919 53 171 11.0 16.0 0.00 0.01 0.01 81 1005.7
20210514132019 53 165 12.0 19.0 0.00 0.01 0.01 80 1005.7
20210514131119 54 165 13.0 19.0 0.00 0.01 0.01 79 1005.8
20210514130219 54 168 12.0 17.0 0.00 0.01 0.01 79 1005.8
20210514125319 54 164 13.0 17.0 0.00 0.01 0.01 81 1006.1
20210514124419 54 162 13.0 18.0 0.00 0.01 0.01 80 1006.1
20210514123519 54 162 13.0 18.0 0.00 0.01 0.01 80 1006.2
20210514122619 55 158 13.0 17.0 0.00 0.01 0.01 79 1006.3
20210514121719 56 159 12.0 17.0 0.00 0.01 0.01 79 1006.5
20210514120819 56 159 12.0 18.0 0.00 0.01 0.01 79 1006.7
20210514115919 57 164 11.0 16.0 0.00 0.01 0.01 80 1006.8
20210514115019 56 166 11.0 15.0 0.00 0.01 0.01 80 1007.0
20210514114119 55 164 12.0 16.0 0.00 0.01 0.01 81 1007.2
20210514113219 55 161 12.0 15.0 0.00 0.01 0.01 80 1007.3
20210514112319 55 161 12.0 18.0 0.00 0.01 0.01 79 1007.2
20210514111419 56 164 12.0 18.0 0.00 0.01 0.01 77 1007.3
20210514110519 56 162 11.0 17.0 0.00 0.01 0.01 79 1007.5